EW4696 Weather Reports


Display with metric or nautical units.
time (UTC)temp
F
wind
direction
speed
MPH
gust
MPH
rain 1hr
in
rain 24hr
in
rain mn
in
humidity
%
barometer
mb
20260903002004 86 125 1.0 3.0 0.03 0.03 0.03 69 1012.0
20260903001504 86 125 1.0 4.0 0.03 0.03 0.03 69 1012.0
20260903001003 85 126 1.0 7.0 0.03 0.03 0.03 71 1012.0
20260903000503 85 123 1.0 7.0 0.03 0.03 0.03 71 1012.0
20260903000004 85 118 1.0 3.0 0.03 0.03 0.03 73 1012.0
20260902235504 85 118 1.0 7.0 0.03 0.03 0.03 72 1012.0
20260902235003 86 110 2.0 8.0 0.03 0.03 0.03 70 1012.1
20260902234504 87 97 2.0 8.0 0.03 0.03 0.03 69 1012.3
20260902234004 89 91 3.0 7.0 0.03 0.03 0.03 63 1012.2
20260902233504 91 99 2.0 6.0 0.03 0.03 0.03 58 1012.1
20260902233003 95 125 1.0 3.0 0.02 0.02 0.02 56 1012.0
20260902232504 99 156 1.0 3.0 0.01 0.01 0.01 50 1012.1
20260902232004 100 179 1.0 3.0 0.00 0.00 0.00 41 1011.9
20260902231503 100 0 0.0 2.0 0.00 0.00 0.00 39 1011.8
20260902230504 101 181 1.0 4.0 0.00 0.00 0.00 40 1011.6
20260902225504 101 183 1.0 4.0 0.00 0.00 0.00 39 1011.6
20260902225003 101 175 1.0 6.0 0.00 0.00 0.00 40 1011.6
20260902223003 102 164 1.0 4.0 0.00 0.00 0.00 39 1011.7
20260902222004 103 162 1.0 5.0 0.00 0.00 0.00 38 1011.8
20260902221504 103 163 1.0 4.0 0.00 0.00 0.00 39 1011.8
20260902220504 103 179 1.0 7.0 0.00 0.00 0.00 36 1011.9
20260902220004 103 183 1.0 4.0 0.00 0.00 0.00 38 1011.9
20260902215503 103 182 1.0 3.0 0.00 0.00 0.00 38 1011.9
20260902215003 103 182 1.0 3.0 0.00 0.00 0.00 36 1011.9
20260902214504 103 183 1.0 4.0 0.00 0.00 0.00 36 1012.0
20260902214004 102 184 1.0 4.0 0.00 0.00 0.00 37 1012.0
20260902213503 102 184 1.0 3.0 0.00 0.00 0.00 38 1012.1
20260902213004 102 182 1.0 4.0 0.00 0.00 0.00 38 1012.1
20260902212504 102 181 1.0 4.0 0.00 0.00 0.00 38 1012.2
20260902212003 101 178 1.0 4.0 0.00 0.00 0.00 38 1012.1
20260902211504 101 0 0.0 4.0 0.00 0.00 0.00 38 1012.1
20260902211004 102 0 0.0 6.0 0.00 0.00 0.00 37 1012.2
20260902210003 102 145 1.0 4.0 0.00 0.00 0.00 38 1012.4
20260902205003 102 139 1.0 4.0 0.00 0.00 0.00 39 1012.5
20260902204504 101 124 1.0 4.0 0.00 0.00 0.00 40 1012.6
20260902204003 101 109 1.0 3.0 0.00 0.00 0.00 40 1012.7
20260902203003 102 87 1.0 3.0 0.00 0.00 0.00 40 1012.8
20260902202504 103 84 1.0 3.0 0.00 0.00 0.00 38 1012.8
20260902202004 103 85 1.0 2.0 0.00 0.00 0.00 39 1012.9
20260902201503 102 84 1.0 7.0 0.00 0.00 0.00 40 1012.9
20260902201003 101 88 1.0 7.0 0.00 0.00 0.00 41 1013.0
20260902200504 100 94 1.0 3.0 0.00 0.00 0.00 40 1013.1
20260902200004 100 0 0.0 1.0 0.00 0.00 0.00 40 1013.2
20260902195503 101 0 0.0 2.0 0.00 0.00 0.00 40 1013.3
20260902195004 101 0 0.0 2.0 0.00 0.00 0.00 40 1013.4
20260902194003 100 0 0.0 2.0 0.00 0.00 0.00 41 1013.6
20260902193503 100 96 1.0 5.0 0.00 0.00 0.00 42 1013.6
20260902193004 99 96 1.0 5.0 0.00 0.00 0.00 43 1013.6
20260902192503 99 96 1.0 5.0 0.00 0.00 0.00 42 1013.8
20260902192004 99 87 1.0 6.0 0.00 0.00 0.00 43 1013.9
20260902191504 99 72 1.0 6.0 0.00 0.00 0.00 42 1013.9
20260902191003 99 46 1.0 5.0 0.00 0.00 0.00 41 1014.0
20260902190503 99 44 1.0 5.0 0.00 0.00 0.00 41 1014.1
20260902190004 99 39 1.0 3.0 0.00 0.00 0.00 44 1014.3
20260902185503 99 39 1.0 4.0 0.00 0.00 0.00 43 1014.3
20260902185003 99 0 0.0 4.0 0.00 0.00 0.00 43 1014.4
20260902184504 98 72 1.0 7.0 0.00 0.00 0.00 44 1014.4
20260902184003 99 105 2.0 7.0 0.00 0.00 0.00 43 1014.5
20260902183004 99 165 1.0 4.0 0.00 0.00 0.00 44 1014.8
20260902182503 98 157 1.0 4.0 0.00 0.00 0.00 45 1014.8
20260902182004 98 150 1.0 5.0 0.00 0.00 0.00 44 1015.0
20260902181504 98 148 1.0 5.0 0.00 0.00 0.00 45 1015.0
20260902181004 98 140 1.0 5.0 0.00 0.00 0.00 45 1015.1
20260902180503 99 134 1.0 5.0 0.00 0.00 0.00 45 1015.2
20260902175504 98 131 1.0 3.0 0.00 0.00 0.00 45 1015.4
20260902175003 98 131 1.0 3.0 0.00 0.00 0.00 44 1015.5
20260902174503 98 131 1.0 3.0 0.00 0.00 0.00 45 1015.7
20260902173504 97 120 1.0 3.0 0.00 0.00 0.00 49 1015.8
20260902173003 97 129 1.0 5.0 0.00 0.00 0.00 46 1015.8
20260902171504 96 173 1.0 4.0 0.00 0.00 0.00 49 1016.0
20260902171003 96 192 1.0 4.0 0.00 0.00 0.00 47 1016.1
20260902170503 96 214 1.0 4.0 0.00 0.00 0.00 50 1016.1
20260902170004 96 209 1.0 4.0 0.00 0.00 0.00 50 1016.2
20260902165003 96 207 1.0 4.0 0.00 0.00 0.00 51 1016.3
20260902164504 95 207 1.0 4.0 0.00 0.00 0.00 51 1016.4
20260902164003 95 204 1.0 5.0 0.00 0.00 0.00 51 1016.5
20260902163503 95 198 2.0 5.0 0.00 0.00 0.00 52 1016.6
20260902163004 94 197 1.0 5.0 0.00 0.00 0.00 52 1016.6
20260902162504 94 198 1.0 5.0 0.00 0.00 0.00 52 1016.5
20260902162004 94 0 0.0 4.0 0.00 0.00 0.00 53 1016.6
20260902161503 94 198 1.0 4.0 0.00 0.00 0.00 53 1016.5
20260902161004 93 198 1.0 4.0 0.00 0.00 0.00 54 1016.5
20260902160503 93 198 1.0 4.0 0.00 0.00 0.00 54 1016.5
20260902160003 92 198 1.0 4.0 0.00 0.00 0.00 55 1016.5
20260902155504 92 196 1.0 4.0 0.00 0.00 0.00 54 1016.6
20260902154503 92 194 1.0 5.0 0.00 0.00 0.00 56 1016.6
20260902154003 92 194 1.0 5.0 0.00 0.00 0.00 56 1016.7
20260902153504 91 194 1.0 7.0 0.00 0.00 0.00 58 1016.7
20260902153003 91 194 1.0 7.0 0.00 0.00 0.00 58 1016.7
20260902152503 90 194 1.0 4.0 0.00 0.00 0.00 58 1016.6
20260902152004 90 194 1.0 4.0 0.00 0.00 0.00 60 1016.6
20260902151504 90 194 1.0 4.0 0.00 0.00 0.00 59 1016.7
20260902150504 89 206 2.0 5.0 0.00 0.00 0.00 62 1016.6
20260902150004 89 196 1.0 6.0 0.00 0.00 0.00 61 1016.5
20260902145003 88 182 2.0 5.0 0.00 0.00 0.00 64 1016.5
20260902144504 87 179 2.0 5.0 0.00 0.00 0.00 63 1016.5
20260902144004 87 179 1.0 4.0 0.00 0.00 0.00 66 1016.6
20260902143503 87 179 1.0 5.0 0.00 0.00 0.00 68 1016.6
20260902143004 86 181 1.0 5.0 0.00 0.00 0.00 69 1016.7
20260902142503 85 184 1.0 2.0 0.00 0.00 0.00 70 1016.6
20260902142003 85 183 1.0 4.0 0.00 0.00 0.00 70 1016.6
20260902141004 84 117 2.0 19.0 0.00 0.00 0.00 71 1016.5
20260902140503 84 112 1.0 19.0 0.00 0.00 0.00 70 1016.6
20260902140003 84 0 0.0 5.0 0.00 0.00 0.00 72 1016.6
20260902135503 83 0 0.0 0.0 0.00 0.00 0.00 72 1016.6
20260902135004 83 0 0.0 0.0 0.00 0.00 0.00 74 1016.6
20260902134504 82 0 0.0 0.0 0.00 0.00 0.00 75 1016.5
20260902134003 81 0 0.0 0.0 0.00 0.00 0.00 77 1016.5
20260902133503 80 0 0.0 0.0 0.00 0.00 0.00 79 1016.4
20260902132003 78 0 0.0 0.0 0.00 0.00 0.00 82 1016.3
20260902131503 78 0 0.0 0.0 0.00 0.00 0.00 82 1016.2
20260902131004 77 0 0.0 0.0 0.00 0.00 0.00 82 1016.2
20260902130504 77 0 0.0 0.0 0.00 0.00 0.00 82 1016.2
20260902130004 77 0 0.0 0.0 0.00 0.00 0.00 83 1016.1
20260902125503 76 0 0.0 0.0 0.00 0.00 0.00 83 1016.1
20260902125004 76 0 0.0 0.0 0.00 0.00 0.00 84 1016.1
20260902124504 76 0 0.0 0.0 0.00 0.00 0.00 83 1016.0
20260902124003 76 0 0.0 0.0 0.00 0.00 0.00 83 1016.0
20260902123503 76 0 0.0 0.0 0.00 0.00 0.00 83 1015.9
20260902123003 76 0 0.0 0.0 0.00 0.00 0.00 83 1015.8
20260902122504 76 0 0.0 0.0 0.00 0.00 0.00 83 1015.8
20260902122003 76 0 0.0 0.0 0.00 0.00 0.00 83 1015.6
20260902121503 76 0 0.0 0.0 0.00 0.00 0.00 82 1015.6
20260902121004 76 0 0.0 0.0 0.00 0.00 0.00 82 1015.7
20260902120004 76 0 0.0 0.0 0.00 0.00 0.00 82 1015.6
20260902115503 76 0 0.0 0.0 0.00 0.00 0.00 82 1015.6
20260902115004 76 0 0.0 0.0 0.00 0.00 0.00 82 1015.6
20260902114504 76 0 0.0 0.0 0.00 0.00 0.00 82 1015.5
20260902114003 77 0 0.0 0.0 0.00 0.00 0.00 81 1015.5
20260902113503 77 0 0.0 0.0 0.00 0.00 0.00 81 1015.6
20260902113003 77 0 0.0 0.0 0.00 0.00 0.00 81 1015.4
20260902112504 77 0 0.0 0.0 0.00 0.00 0.00 81 1015.4
20260902112003 77 0 0.0 0.0 0.00 0.00 0.00 81 1015.4
20260902111503 77 0 0.0 0.0 0.00 0.00 0.00 81 1015.4
20260902111003 77 0 0.0 0.0 0.00 0.00 0.00 81 1015.5
20260902110504 77 0 0.0 0.0 0.00 0.00 0.00 81 1015.4
20260902110005 77 0 0.0 0.0 0.00 0.00 0.00 81 1015.5
20260902105503 77 0 0.0 0.0 0.00 0.00 0.00 81 1015.5
20260902105003 77 0 0.0 0.0 0.00 0.00 0.00 81 1015.4
20260902104504 78 0 0.0 0.0 0.00 0.00 0.00 81 1015.5
20260902104004 78 0 0.0 0.0 0.00 0.00 0.00 80 1015.4
20260902103503 78 0 0.0 0.0 0.00 0.00 0.00 80 1015.5
20260902103003 78 0 0.0 0.0 0.00 0.00 0.00 80 1015.4
20260902102504 78 0 0.0 0.0 0.00 0.00 0.00 80 1015.5
20260902102004 78 0 0.0 0.0 0.00 0.00 0.00 79 1015.5
20260902101003 78 0 0.0 3.0 0.00 0.00 0.00 79 1015.4
20260902095503 78 0 0.0 0.0 0.00 0.00 0.00 79 1015.4
20260902094004 78 0 0.0 1.0 0.00 0.00 0.00 79 1015.4
20260902093503 78 0 0.0 3.0 0.00 0.00 0.00 79 1015.4
20260902093003 78 0 0.0 3.0 0.00 0.00 0.00 79 1015.4
20260902091504 78 0 0.0 0.0 0.00 0.00 0.00 81 1015.4
20260902091003 78 0 0.0 0.0 0.00 0.00 0.00 82 1015.5
20260902090503 78 0 0.0 0.0 0.00 0.00 0.00 82 1015.7
20260902090004 79 0 0.0 0.0 0.00 0.00 0.00 82 1015.8
20260902085504 79 0 0.0 0.0 0.00 0.00 0.00 81 1015.7
20260902085004 79 0 0.0 0.0 0.00 0.00 0.00 81 1015.7
20260902084503 79 0 0.0 0.0 0.00 0.00 0.00 81 1015.6
20260902084003 79 0 0.0 0.0 0.00 0.00 0.00 80 1015.6
20260902083504 79 0 0.0 0.0 0.00 0.00 0.00 80 1015.5
20260902083003 79 0 0.0 0.0 0.00 0.00 0.00 80 1015.6
20260902082003 80 0 0.0 0.0 0.00 0.00 0.00 79 1015.8
20260902081504 80 0 0.0 0.0 0.00 0.00 0.00 79 1015.8
20260902081003 80 0 0.0 0.0 0.00 0.00 0.00 78 1015.7
20260902080503 80 0 0.0 0.0 0.00 0.00 0.00 78 1015.8
20260902075003 81 0 0.0 0.0 0.00 0.00 0.00 77 1015.8
20260902074004 81 0 0.0 0.0 0.00 0.00 0.00 76 1015.9
20260902073504 81 0 0.0 0.0 0.00 0.00 0.00 76 1015.9
20260902073003 81 0 0.0 1.0 0.00 0.00 0.00 76 1015.9
20260902072503 81 0 0.0 1.0 0.00 0.00 0.00 76 1015.8
20260902072003 82 0 0.0 1.0 0.00 0.00 0.00 76 1015.9
20260902071503 82 0 0.0 2.0 0.00 0.00 0.00 75 1016.0
20260902071003 82 0 0.0 2.0 0.00 0.00 0.00 75 1016.1
20260902070003 82 0 0.0 0.0 0.00 0.00 0.00 75 1016.1
20260902065504 82 0 0.0 0.0 0.00 0.00 0.00 74 1016.1
20260902065003 82 0 0.0 1.0 0.00 0.00 0.00 74 1016.2
20260902064503 82 0 0.0 1.0 0.00 0.00 0.00 74 1016.1
20260902063504 83 0 0.0 1.0 0.00 0.00 0.00 73 1016.0
20260902063003 83 0 0.0 1.0 0.00 0.00 0.00 73 1016.1
20260902062503 83 0 0.0 1.0 0.00 0.00 0.00 73 1016.1
20260902060003 83 0 0.0 1.0 0.00 0.00 0.00 73 1016.0
20260902055003 84 0 0.0 1.0 0.00 0.00 0.00 72 1016.0
20260902054504 84 0 0.0 1.0 0.00 0.00 0.00 72 1015.9
20260902054003 84 0 0.0 0.0 0.00 0.00 0.00 72 1015.8
20260902053503 84 0 0.0 1.0 0.00 0.00 0.00 71 1015.8
20260902053003 84 0 0.0 2.0 0.00 0.00 0.00 71 1015.9
20260902052504 84 0 0.0 2.0 0.00 0.00 0.00 71 1015.9
20260902051503 84 0 0.0 3.0 0.00 0.00 0.00 71 1015.7
20260902051003 84 0 0.0 3.0 0.00 0.00 0.00 70 1015.9
20260902050007 85 0 0.0 2.0 0.00 0.00 0.00 69 1015.9
20260902045503 85 0 0.0 3.0 0.00 0.00 0.00 69 1015.8
20260902045003 85 0 0.0 3.0 0.00 0.00 0.00 69 1015.9
20260902044503 85 0 0.0 3.0 0.00 0.00 0.00 68 1015.9
20260902044004 85 0 0.0 3.0 0.00 0.00 0.00 68 1016.0
20260902043503 85 101 1.0 3.0 0.00 0.00 0.00 67 1015.9
20260902043003 85 101 1.0 3.0 0.00 0.00 0.00 67 1015.9
20260902042004 85 0 0.0 2.0 0.00 0.00 0.00 66 1016.0
20260902041504 85 0 0.0 3.0 0.00 0.00 0.00 66 1015.9
20260902040504 86 0 0.0 2.0 0.00 0.00 0.00 65 1015.7
20260902040005 86 0 0.0 1.0 0.00 0.00 0.00 65 1015.8
20260902035504 86 0 0.0 1.0 0.00 0.00 0.00 65 1015.7
20260902035004 86 0 0.0 1.0 0.00 0.00 0.00 64 1015.7
20260902034504 86 0 0.0 1.0 0.00 0.00 0.00 64 1015.7
20260902034005 86 0 0.0 1.0 0.00 0.00 0.00 64 1015.6
20260902033504 86 0 0.0 3.0 0.00 0.00 0.00 64 1015.6
20260902033004 86 0 0.0 3.0 0.00 0.00 0.00 63 1015.4
20260902032005 87 0 0.0 0.0 0.00 0.00 0.00 63 1015.4
20260902031504 87 0 0.0 1.0 0.00 0.00 0.00 63 1015.3
20260902030004 87 0 0.0 1.0 0.00 0.00 0.00 62 1015.0
20260902025505 88 0 0.0 1.0 0.00 0.00 0.00 61 1014.9
20260902025005 88 0 0.0 1.0 0.00 0.00 0.00 61 1014.8
20260902024504 88 0 0.0 1.0 0.00 0.00 0.00 60 1014.7
20260902024004 88 0 0.0 2.0 0.00 0.00 0.00 60 1014.7
20260902023505 88 0 0.0 2.0 0.00 0.00 0.00 59 1014.6
20260902023004 88 0 0.0 3.0 0.00 0.00 0.00 59 1014.5
20260902022504 88 0 0.0 3.0 0.00 0.00 0.00 58 1014.4
20260902021505 89 0 0.0 2.0 0.00 0.00 0.00 57 1014.2
20260902021004 89 0 0.0 3.0 0.00 0.00 0.00 57 1014.2
20260902020504 90 0 0.0 3.0 0.00 0.00 0.00 56 1014.1
20260902020005 90 0 0.0 2.0 0.00 0.00 0.00 55 1014.0
20260902015505 90 0 0.0 2.0 0.00 0.00 0.00 54 1014.0
20260902015004 90 0 0.0 4.0 0.00 0.00 0.00 53 1013.9
20260902014005 91 98 1.0 3.0 0.00 0.00 0.00 52 1013.8
20260902013504 91 97 2.0 6.0 0.00 0.00 0.00 51 1013.7
20260902013004 92 94 2.0 6.0 0.00 0.00 0.00 51 1013.7
20260902012505 92 90 1.0 6.0 0.00 0.00 0.00 50 1013.6
20260902012004 92 88 1.0 5.0 0.00 0.00 0.00 49 1013.5
20260902011505 92 88 1.0 5.0 0.00 0.00 0.00 48 1013.5
20260902011004 92 0 0.0 5.0 0.00 0.00 0.00 48 1013.5
20260902010504 93 88 1.0 5.0 0.00 0.00 0.00 48 1013.5
20260902010005 93 87 1.0 5.0 0.00 0.00 0.00 48 1013.4
20260902005504 93 82 1.0 5.0 0.00 0.00 0.00 47 1013.5
20260902005005 93 82 1.0 5.0 0.00 0.00 0.00 47 1013.5
20260902004004 94 91 1.0 5.0 0.00 0.00 0.00 47 1013.5
20260902003504 94 113 1.0 6.0 0.00 0.00 0.00 46 1013.6
20260902003004 94 107 1.0 6.0 0.00 0.00 0.00 46 1013.6